Wind_Speed
16 12 8 8 5 9 10 10 11 12 13 11 11 11 11 10 6 4 5 7 10 15 19 19 19 19 18 16 14 13 13 14 14 15 15 14 14 14 14 14 15 14 14 14 14 14 13 12 13 13 13 13 14 14 15 16 18 19 19 19 19 19 19 19 15 13 12 11 11 12 12 10 8 6 6 6 6 5 4 4 6 6 7 7 7
11 7 9 10 5 9 10 10 9 9 11 9 10 14 17 14 8 5 7 11 14 16 19 20 20 19 19 18 16 14 14 14 15 14 13 12 12 13 13 13 13 13 13 13 13 13 13 14 14 15 14 13 13 14 15 16 18 19 20 19 19 20 20 18 15 12 10 10 11 11 11 11 9 7 6 6 6 6 6 7 8 9 10 11 12
8 7 8 12 11 14 12 12 11 9 9 8 10 16 21 20 16 15 16 18 19 19 19 19 19 18 19 20 18 15 15 15 13 12 10 10 10 10 11 11 11 11 12 13 13 14 15 16 16 16 14 13 14 14 15 15 16 18 19 19 19 19 19 18 14 10 10 10 11 11 12 12 11 10 7 6 6 7 8 9 11 12 13 15 16
5 5 7 10 13 17 17 18 17 14 13 14 15 20 25 24 21 24 23 22 22 19 19 19 19 20 20 18 16 15 13 11 10 9 9 9 9 9 9 10 11 12 13 13 15 16 17 18 17 16 14 14 15 14 13 13 14 16 18 19 19 19 18 16 13 11 10 10 12 12 13 14 14 11 8 8 9 11 12 13 14 15 16 17 17
5 4 6 10 12 15 19 21 22 19 18 19 21 26 28 24 22 23 22 21 21 18 18 20 21 21 19 16 14 13 8 6 8 9 10 10 11 10 11 12 13 14 14 14 16 17 18 19 18 16 15 15 14 12 10 12 14 17 17 18 19 19 18 17 15 12 12 11 12 13 13 15 14 11 9 10 12 14 15 16 16 17 16 17 17
8 6 5 6 9 13 18 22 25 24 23 24 24 26 25 22 21 22 22 21 20 18 20 22 23 20 16 14 13 11 7 7 9 9 10 11 11 10 12 14 15 15 15 14 15 16 17 18 19 17 17 16 13 11 11 14 16 17 17 17 19 20 20 19 17 15 14 13 12 12 13 15 14 11 11 13 13 14 16 17 17 17 16 16 16
12 12 11 10 7 6 9 15 22 25 28 30 30 29 25 23 24 25 24 21 19 20 21 22 21 19 17 15 15 14 10 8 8 9 9 10 8 5 8 13 13 13 13 13 15 16 16 17 17 17 18 16 15 13 13 15 18 18 18 18 20 20 20 19 18 17 16 15 12 12 12 13 12 11 13 14 14 15 17 18 18 17 16 15 15
12 12 11 12 12 11 10 7 8 14 22 28 32 33 30 28 27 25 22 19 18 19 21 21 20 20 20 18 15 11 7 5 5 8 9 6 3 1 5 11 12 12 13 15 17 17 16 15 15 16 16 15 16 15 15 17 19 19 20 20 20 19 19 18 16 16 15 13 12 11 10 9 10 11 13 14 14 16 18 18 17 15 14 14 15
10 9 9 9 10 11 12 12 11 8 9 14 20 25 27 26 23 21 18 16 16 18 19 19 18 18 19 16 11 5 2 3 4 7 7 7 6 3 0 7 12 15 17 20 20 18 17 15 14 15 15 15 17 18 18 18 18 19 21 21 20 19 19 16 13 12 12 11 11 10 9 8 11 13 15 14 14 16 16 15 13 13 14 14 15
7 7 7 7 8 8 10 11 12 12 11 10 10 12 15 16 16 15 14 13 13 15 14 13 11 10 10 9 5 3 3 3 4 6 6 8 7 6 4 4 11 16 21 23 22 19 17 15 14 16 15 14 16 18 18 15 15 18 19 20 19 18 18 14 10 10 11 12 11 9 9 11 14 15 15 14 14 13 12 12 12 13 14 14 13
6 6 5 5 5 6 7 8 9 10 11 10 10 10 10 11 11 10 9 9 9 9 9 8 4 4 6 4 2 4 4 5 4 5 4 7 6 7 5 3 9 17 23 24 21 18 17 15 14 14 12 11 14 15 14 14 15 17 18 18 17 16 16 14 13 13 13 11 10 10 12 14 15 15 14 13 12 11 12 13 13 13 13 12 11
5 5 4 3 4 5 5 5 5 7 9 8 8 8 8 10 12 12 10 8 8 8 7 7 4 4 8 7 4 5 7 7 7 7 5 8 6 6 5 4 12 21 26 25 21 20 17 14 12 9 7 8 12 11 11 15 17 18 17 15 15 14 14 14 14 13 11 10 10 11 13 13 13 13 13 12 12 13 13 13 13 12 11 10 10
5 5 4 3 3 4 4 3 3 5 7 6 6 7 7 8 10 11 10 8 6 7 6 6 6 7 8 9 8 8 9 10 10 9 9 10 8 7 4 11 22 28 29 26 22 21 15 11 11 8 8 10 11 8 10 17 17 15 14 14 14 12 12 14 13 11 10 10 12 13 13 12 12 12 12 13 14 14 13 12 11 10 10 11 11
5 5 5 4 4 5 5 4 2 4 7 6 5 6 7 7 8 9 9 8 6 4 4 4 5 6 6 6 8 9 10 11 13 12 12 13 11 7 10 21 28 30 29 27 24 22 16 13 14 13 15 15 11 8 13 18 15 14 14 14 13 12 12 13 12 12 12 13 14 15 15 14 14 13 13 14 13 12 11 10 10 11 12 12 12
6 6 6 5 5 5 4 3 2 3 7 6 5 5 7 9 9 10 9 8 7 3 3 5 5 6 7 7 9 10 11 13 14 14 15 16 15 16 20 25 29 29 29 28 26 23 20 19 19 20 20 16 13 12 16 17 14 14 14 13 12 11 10 10 12 12 12 12 14 15 16 16 14 13 12 11 10 10 10 11 12 12 12 12 12
7 6 5 4 3 4 4 2 2 4 7 5 4 5 5 6 7 9 8 7 10 8 7 6 6 8 9 9 9 10 11 12 13 14 18 18 19 21 24 28 30 30 29 27 26 23 21 21 21 23 21 17 17 19 19 17 15 14 13 13 12 10 9 10 11 11 11 13 14 14 14 13 11 10 9 9 9 10 11 11 12 12 12 12 12
6 5 4 3 3 5 5 5 4 6 8 5 5 6 5 3 3 5 7 5 8 11 11 8 8 10 10 9 10 10 11 13 15 16 18 19 20 23 26 28 28 27 26 25 24 22 20 20 21 22 20 19 20 20 18 16 15 14 13 13 12 10 10 10 9 10 12 13 12 10 9 8 7 8 8 9 10 10 10 10 11 11 12 12 12
5 4 4 5 6 7 7 6 5 7 8 7 6 7 6 4 2 2 5 6 5 7 9 8 8 9 10 10 10 12 15 17 18 16 16 19 21 23 24 25 24 24 24 23 20 19 18 18 18 18 17 17 18 17 15 13 13 13 13 12 10 9 9 9 10 10 9 8 6 6 6 6 7 8 9 9 9 9 10 10 11 11 11 11 11
6 5 5 7 8 9 8 7 6 8 9 7 5 4 6 7 5 3 6 7 5 5 6 6 6 5 8 11 12 13 15 17 16 16 18 20 21 21 21 21 20 19 17 15 13 12 12 12 12 12 12 12 11 10 9 8 9 9 8 7 6 6 6 6 6 5 4 5 5 6 6 7 7 8 8 9 9 10 11 11 11 11 10 10 10
8 7 7 8 9 9 9 7 7 9 9 8 5 4 5 7 5 2 2 4 4 4 5 5 4 6 8 10 12 12 9 10 13 15 17 18 18 18 16 14 11 9 6 4 3 2 1 1 2 3 4 4 4 4 5 5 5 5 4 3 3 3 3 3 3 4 5 5 6 6 6 6 7 8 9 10 10 11 11 11 10 10 10 10 9
10 9 9 9 9 9 8 7 6 7 9 8 7 5 5 6 4 1 3 3 2 2 2 2 2 4 4 5 7 6 7 10 13 14 14 14 12 9 6 3 0 2 3 5 6 7 9 9 9 9 8 7 5 5 5 4 3 2 1 2 3 3 4 5 5 5 5 5 5 5 6 7 8 9 9 10 10 10 10 10 10 10 10 9 9
13 11 10 10 9 8 7 6 5 5 7 8 6 4 3 3 2 1 2 2 1 0 1 1 2 3 4 5 6 6 8 10 10 9 7 5 3 0 2 4 6 7 8 9 11 13 13 13 11 10 8 7 6 6 5 5 6 6 7 7 7 7 6 6 5 5 4 5 5 6 7 8 8 9 9 9 10 10 10 10 10 10 9 9 10
16 14 13 12 11 9 8 6 5 4 5 7 5 3 2 1 1 0 1 1 2 1 1 2 2 4 4 5 4 4 4 4 2 1 1 2 3 4 5 6 7 8 9 11 13 14 14 13 12 11 10 10 10 10 10 10 10 10 10 9 9 8 8 7 7 6 6 7 7 7 8 8 8 8 9 10 10 10 10 10 9 9 9 9 9
18 17 16 16 14 12 10 8 6 5 5 6 5 4 3 2 1 1 1 1 1 2 1 1 1 2 3 4 3 2 2 2 3 4 5 5 6 6 7 9 10 11 12 14 15 15 15 15 15 15 15 14 14 13 12 12 11 11 11 10 10 9 9 9 9 9 8 8 8 8 8 8 8 9 10 10 10 10 10 9 8 8 8 9 10
20 20 19 18 17 16 14 11 9 7 7 7 7 7 6 5 4 4 4 4 5 5 5 4 4 4 6 7 7 6 6 6 6 7 8 9 9 10 12 14 15 16 17 18 19 19 19 18 18 18 17 16 15 14 13 12 11 11 10 9 10 11 11 10 10 9 9 8 8 8 8 9 10 11 11 11 10 10 11 10 8 7 7 9 11
21 21 21 20 19 18 16 14 12 10 9 9 9 9 9 8 8 7 7 7 8 9 8 8 7 8 9 10 10 9 9 9 9 10 12 13 14 15 17 19 20 21 22 22 21 21 21 20 20 19 19 18 17 15 14 13 11 10 9 10 11 11 10 9 9 9 9 9 9 9 10 11 12 12 12 11 10 11 12 11 9 7 8 10 11
22 22 22 21 20 19 18 16 14 13 12 11 11 11 11 11 10 9 9 9 10 11 10 10 11 12 12 13 12 10 10 11 13 15 16 17 17 18 20 22 23 23 23 22 22 22 21 21 21 21 20 19 18 17 15 13 11 11 11 12 11 10 9 9 9 10 10 11 11 11 12 12 11 11 10 10 10 11 12 11 8 7 9 11 10
22 22 22 22 21 21 20 18 17 15 15 14 13 12 12 12 12 11 11 11 11 11 11 11 13 14 15 14 12 11 12 14 16 18 19 19 19 20 21 23 24 24 23 23 23 23 23 23 22 20 19 18 18 16 14 12 12 12 12 12 11 11 11 10 10 10 10 11 12 12 12 11 9 8 8 8 9 11 12 11 8 8 10 10 8
22 23 23 22 22 22 21 20 19 18 17 16 15 14 14 13 13 13 13 13 13 13 13 14 15 16 16 14 12 12 15 18 19 20 20 20 21 21 22 23 23 23 23 23 24 23 23 21 20 19 18 18 18 16 14 13 13 12 11 11 12 12 12 12 11 11 11 12 11 11 10 8 7 7 7 8 9 11 11 9 8 8 9 8 8
23 23 23 23 23 23 22 21 20 20 19 18 17 16 16 15 14 14 15 15 15 16 16 16 16 16 15 14 13 15 18 20 20 21 21 21 22 22 22 22 22 22 22 22 22 21 20 18 18 17 18 18 17 16 15 14 14 13 13 12 12 12 12 12 11 11 11 10 9 8 6 6 8 8 8 8 9 10 10 9 8 8 9 9 9
23 23 23 23 23 23 23 23 22 22 21 19 18 18 17 17 16 15 15 16 16 17 17 16 16 16 16 16 16 17 19 20 21 21 21 22 22 22 22 22 21 21 21 20 19 19 18 17 17 17 17 16 15 15 15 15 15 15 14 13 12 12 12 11 10 9 10 10 8 6 6 8 10 9 8 8 8 9 9 9 9 9 10 11 14
23 23 23 24 24 24 24 24 23 23 22 21 20 19 19 18 17 17 16 16 16 17 17 16 16 16 17 17 18 19 19 20 21 21 21 22 21 21 21 21 21 20 19 19 19 19 19 19 18 18 17 16 16 15 15 16 16 16 14 12 11 11 11 10 10 9 10 12 9 6 7 8 8 8 8 8 8 9 10 10 10 12 14 18 23
23 23 24 24 24 25 25 24 24 24 23 23 22 21 20 19 18 17 16 16 16 16 16 16 16 16 17 18 19 20 21 21 22 22 22 22 22 22 21 21 20 19 19 20 21 20 20 20 19 18 18 18 17 17 17 17 16 15 13 12 11 11 10 10 9 8 10 13 11 9 8 8 9 10 9 9 10 11 12 12 13 16 20 24 25
24 24 24 24 24 25 25 25 25 25 24 24 23 22 21 20 19 18 17 17 17 16 16 17 17 16 17 18 20 21 22 23 23 22 22 23 23 23 22 22 21 20 20 21 21 20 20 19 18 18 18 18 18 18 18 17 16 15 14 12 10 10 9 9 9 8 11 14 13 12 12 12 12 13 13 13 13 14 15 16 18 22 25 26 26
25 25 24 24 25 25 26 26 26 26 25 25 25 24 22 21 20 19 18 18 18 18 18 17 17 17 17 18 20 21 22 22 22 22 22 22 23 23 22 22 21 21 20 20 20 19 18 18 19 19 19 18 18 18 18 17 16 16 15 12 10 9 9 9 8 9 12 15 15 15 15 15 16 16 16 17 17 18 19 20 22 25 27 27 27
26 25 25 25 25 26 26 26 26 26 26 26 26 25 24 23 22 20 19 18 18 19 18 18 17 17 18 18 19 21 21 21 21 21 21 21 21 21 21 21 20 19 20 20 20 19 19 20 21 20 20 19 18 18 18 17 17 16 15 13 11 9 8 8 9 11 15 17 18 18 18 19 20 21 21 21 21 22 23 24 26 27 27 27 27
26 26 26 26 26 26 27 27 27 27 27 27 27 26 26 24 23 22 21 19 19 19 18 18 17 18 18 18 19 20 21 20 20 20 20 20 20 21 21 21 20 20 20 20 20 19 20 21 22 21 21 20 20 19 18 17 17 17 16 14 12 11 10 10 12 16 19 20 21 22 22 23 24 25 25 25 25 26 27 28 28 28 28 27 26
26 26 26 26 26 27 28 28 28 28 27 27 27 27 27 26 25 24 22 21 20 19 19 18 17 18 18 19 19 20 21 21 21 21 21 22 23 23 23 22 21 21 21 21 20 20 20 21 21 21 21 21 21 21 21 21 21 20 19 18 16 16 15 16 18 21 22 24 25 26 26 27 28 28 29 29 29 29 29 29 29 28 28 28 27
26 26 26 27 27 27 28 29 29 28 28 28 28 27 27 26 26 25 24 22 21 20 19 19 18 18 19 19 19 20 20 21 21 21 22 23 23 23 23 22 21 21 21 21 21 21 21 21 21 22 23 23 23 24 26 26 26 26 24 23 22 21 21 22 24 25 26 27 28 29 29 30 31 31 31 31 31 31 31 30 30 30 30 29 29
25 26 26 27 27 27 28 29 29 29 28 28 28 28 27 27 27 26 26 24 23 22 21 20 19 19 20 20 21 21 21 21 21 22 23 23 23 23 23 23 23 24 23 22 21 22 22 22 23 24 26 27 28 29 30 31 31 30 29 28 26 25 25 26 27 28 29 29 30 31 32 32 32 33 33 33 33 33 33 32 32 32 31 31 30
24 25 26 26 26 27 27 28 29 29 29 29 29 29 28 27 27 27 26 26 25 24 23 22 21 21 21 22 23 23 23 23 22 22 23 25 25 25 26 26 26 25 24 22 21 22 23 24 26 28 30 31 32 33 34 34 34 34 33 32 30 30 29 29 30 31 31 31 32 33 33 34 34 34 35 35 35 35 34 34 34 34 33 33 32
23 23 24 25 25 26 26 28 29 29 29 29 29 30 29 29 28 27 27 26 26 26 25 24 23 23 23 24 24 25 25 24 25 25 25 26 27 28 28 28 27 25 23 22 22 23 25 28 30 32 33 34 35 36 37 37 37 37 37 36 34 33 33 33 33 33 33 34 34 35 35 35 35 36 36 36 36 36 36 36 36 35 35 35 35
22 22 22 23 24 24 25 27 28 29 29 30 30 31 31 30 29 28 27 27 27 27 27 26 26 26 26 26 26 26 26 27 27 27 28 28 29 29 28 27 25 24 23 23 24 26 29 31 33 34 35 35 36 38 38 39 39 39 40 39 38 37 37 36 36 36 36 36 37 37 38 38 38 38 38 38 38 38 38 38 38 38 39 39 39
20 20 21 21 22 23 24 25 26 28 29 30 31 32 33 32 31 30 29 28 28 27 27 27 27 27 27 28 28 28 28 29 29 29 29 29 29 28 27 26 25 24 25 25 27 29 31 33 34 34 35 36 37 38 39 40 40 41 42 42 42 41 41 41 41 40 41 41 41 42 42 42 42 42 43 43 42 42 42 42 43 43 43 43 43
18 18 19 20 21 21 22 23 25 26 27 29 30 32 33 34 33 32 31 30 29 28 27 27 28 28 28 28 28 29 29 30 29 29 28 28 27 27 27 26 25 25 27 28 30 31 32 34 34 35 36 37 38 39 40 41 42 42 43 44 44 45 45 45 45 46 46 46 47 47 48 48 48 48 48 48 47 47 47 47 47 47 47 47 47
17 17 17 18 19 20 21 22 23 24 26 27 28 30 31 33 34 34 34 32 31 30 28 27 27 28 29 29 29 30 30 29 28 27 27 26 27 26 26 26 26 27 29 31 32 32 33 34 34 35 36 38 39 40 41 42 43 44 45 46 47 47 48 49 49 50 50 50 51 51 51 51 51 51 51 51 51 50 50 50 49 49 48 47 47
16 16 15 17 18 19 20 21 22 23 25 26 27 28 29 31 33 34 35 34 33 32 30 29 27 28 29 29 29 29 29 28 27 27 26 26 26 25 25 26 27 29 31 32 33 33 34 35 35 36 37 39 40 41 42 43 44 45 47 48 49 49 50 51 51 52 52 51 51 52 52 52 51 52 51 51 50 50 49 49 48 47 46 46 45
14 15 14 15 17 19 19 20 21 22 24 25 26 27 28 29 30 32 34 35 35 34 32 31 29 28 27 27 27 27 27 26 26 26 26 26 25 24 25 26 28 31 33 34 34 35 35 36 36 37 38 39 40 41 42 43 44 45 47 48 49 49 50 50 51 51 50 50 50 50 50 50 50 50 50 49 49 48 48 47 46 46 45 44 44
13 15 15 14 16 18 19 20 20 21 22 24 25 26 26 27 28 30 32 33 34 35 34 33 31 29 28 26 25 25 25 25 25 26 25 25 24 24 25 27 29 32 33 34 35 35 36 36 37 37 38 38 39 40 41 42 43 44 45 46 46 47 47 48 48 48 49 48 49 49 48 48 48 48 48 48 47 47 46 46 45 45 44 44 43
13 14 15 14 15 17 18 19 20 21 21 22 23 24 25 26 27 29 30 31 33 34 35 34 33 32 30 28 26 26 26 25 25 25 25 24 24 24 25 27 30 32 33 33 34 34 34 35 35 36 36 37 38 39 40 41 41 42 43 43 44 44 45 45 46 47 47 47 47 47 47 47 46 46 46 45 45 45 44 44 43 43 43 42 42
13 14 15 15 14 16 17 19 19 20 21 21 22 23 24 25 26 27 28 29 30 32 33 34 34 33 32 30 28 27 27 26 25 25 25 24 24 24 25 27 29 31 31 32 32 32 32 33 33 34 34 35 36 37 38 39 39 40 41 42 42 43 43 44 44 44 44 44 44 43 43 43 43 42 42 42 42 41 41 41 41 40 40 40 39
Wind_Direction
154 160 168 166 158 174 180 188 201 216 221 217 215 220 231 232 222 214 226 246 248 245 242 241 244 248 258 274 282 278 277 273 271 270 270 272 274 277 276 276 277 275 271 273 276 278 278 280 283 282 280 280 283 286 285 281 281 285 287 294 299 300 303 307 301 283 265 257 266 275 284 297 302 305 312 308 301 295 303 317 320 316 314 314 312
171 197 193 185 183 174 183 186 190 224 233 227 223 231 236 228 217 214 214 230 243 248 247 245 248 250 256 274 291 292 289 283 276 270 269 271 273 276 274 274 272 269 271 275 277 278 279 280 281 280 278 279 285 288 289 287 287 286 288 296 299 298 303 307 303 281 253 248 260 269 280 286 288 289 295 303 296 294 300 306 309 311 314 317 316
200 227 201 193 196 185 187 183 190 215 229 236 231 234 232 225 221 216 217 235 246 246 249 249 248 253 262 274 285 289 288 282 276 272 271 268 268 273 275 274 270 269 273 277 278 279 281 280 281 281 277 281 287 288 289 291 290 287 290 298 299 301 305 309 301 271 245 249 260 268 280 284 287 285 282 289 288 286 291 299 303 307 309 312 312
182 215 212 206 199 190 192 188 196 205 206 216 221 227 225 223 223 224 232 248 252 243 243 247 248 255 263 269 277 281 282 282 282 282 276 269 266 269 274 276 275 274 275 278 282 285 286 285 283 280 278 284 288 289 292 290 287 287 292 299 301 303 306 308 296 269 253 255 264 272 282 288 287 282 278 276 279 283 287 294 299 303 305 308 310
144 188 213 220 215 200 195 189 197 206 207 214 219 221 219 217 219 228 242 254 254 242 238 247 254 260 264 269 274 272 274 284 288 293 290 284 281 282 285 287 286 282 279 280 285 289 291 290 285 278 277 283 287 288 289 282 281 287 294 299 301 301 303 303 293 273 264 266 271 276 286 290 284 277 275 274 277 283 286 290 296 301 305 307 310
115 116 136 185 215 214 210 202 202 206 213 221 226 224 221 221 226 236 250 256 252 242 239 248 256 263 269 272 267 256 255 276 292 305 304 302 300 296 294 296 296 289 283 284 289 290 291 290 284 278 276 280 283 281 278 280 285 291 294 296 298 299 298 298 290 276 274 279 282 286 293 292 283 271 266 269 275 283 287 291 297 302 305 307 307
105 100 96 99 114 165 200 210 211 212 214 220 227 232 233 233 237 244 252 254 246 238 238 245 253 261 264 262 259 258 264 281 305 317 311 311 308 302 301 300 300 294 290 294 296 293 289 287 283 278 280 283 280 275 276 281 288 292 292 292 294 296 295 293 286 280 279 282 285 291 298 299 294 282 273 272 276 283 287 291 295 300 302 303 303
102 98 94 92 91 93 99 122 180 206 213 218 224 231 235 236 240 244 246 243 239 236 236 243 250 256 258 255 255 260 274 298 321 322 310 291 258 293 316 304 303 300 299 304 302 295 287 284 280 276 280 281 275 274 280 282 285 287 286 287 290 293 291 288 285 283 282 280 285 292 300 308 302 299 293 284 281 283 286 288 292 296 298 300 301
96 95 95 96 96 95 96 96 103 125 172 203 216 224 229 231 233 233 232 230 232 234 237 245 250 253 254 251 249 257 291 312 326 311 281 233 199 138 319 299 303 297 298 305 303 294 285 278 270 272 273 271 272 278 285 287 283 280 281 283 284 284 282 283 284 284 285 288 293 294 293 291 290 295 294 288 286 286 287 289 292 296 299 301 303
80 82 88 91 93 97 101 106 107 109 118 139 169 191 203 209 213 217 219 220 225 231 236 237 241 244 240 242 247 304 303 273 311 291 247 221 199 141 150 285 296 291 296 303 300 292 287 279 266 267 267 266 277 283 283 281 279 278 278 279 279 276 274 275 278 279 286 295 300 297 286 281 287 291 288 287 289 290 291 295 298 299 300 303 308
67 68 73 77 82 88 93 104 111 113 111 118 131 139 148 159 173 180 186 197 206 211 213 211 218 227 215 230 276 302 255 207 258 274 226 225 206 138 132 259 276 287 299 301 299 292 288 282 268 263 266 272 278 274 267 269 281 285 282 278 274 271 271 269 271 276 286 293 294 289 281 281 284 285 288 292 293 294 295 299 301 302 304 308 310
54 56 55 60 72 83 84 95 116 118 107 110 124 135 142 146 152 155 164 180 185 184 200 219 239 248 225 222 237 254 234 223 254 261 231 228 203 129 118 226 266 289 300 300 298 295 291 286 277 263 257 275 275 257 254 277 290 288 281 273 269 270 271 268 271 278 286 288 283 279 277 280 284 286 292 297 298 298 299 300 302 305 309 310 311
47 46 41 44 60 75 74 72 114 119 105 104 120 142 153 156 157 156 168 180 183 189 205 221 228 250 239 216 220 236 242 252 251 245 245 233 194 147 169 255 273 288 295 296 294 292 288 272 272 262 235 254 271 261 269 288 291 281 272 266 266 270 269 272 274 275 278 278 278 284 291 298 301 301 301 301 301 301 300 302 306 311 313 314 316
34 24 19 25 41 61 58 48 77 103 99 107 135 149 155 174 173 167 180 179 168 179 207 224 224 240 253 233 232 236 236 240 231 235 247 233 216 216 255 268 276 286 290 290 288 287 276 249 244 247 244 251 263 270 283 288 280 268 264 261 262 267 269 276 276 272 276 279 281 290 300 306 306 303 304 304 303 301 303 309 316 320 321 321 319
15 7 8 22 42 63 63 57 86 99 96 110 151 156 171 199 193 183 187 184 182 165 191 223 233 229 233 226 229 233 224 224 228 241 247 242 249 260 266 274 282 288 287 285 284 280 270 254 241 243 251 254 253 262 276 276 265 261 262 259 259 266 266 267 272 275 281 285 288 293 298 300 299 299 301 303 304 309 317 325 328 328 325 322 320
10 13 22 41 64 88 102 124 163 115 100 109 146 145 173 217 203 180 174 195 206 181 176 213 249 244 232 231 246 247 230 234 244 246 251 258 264 266 270 277 282 283 281 281 280 275 266 260 251 249 250 246 249 259 265 262 259 260 255 253 255 259 254 252 267 279 285 289 292 293 294 295 296 300 306 314 322 329 333 334 333 328 324 323 325
24 36 59 82 100 114 127 152 169 128 116 132 152 144 150 220 236 179 163 201 214 182 188 218 237 240 239 246 259 244 232 249 258 251 256 271 276 276 277 277 277 277 278 279 277 273 266 260 254 253 250 243 248 255 256 254 257 255 248 250 255 255 250 255 274 286 291 294 295 297 300 304 311 321 330 336 338 339 338 335 330 326 325 326 328
54 72 99 114 113 115 127 151 169 140 130 143 155 153 150 167 235 205 173 200 222 186 192 214 210 218 224 219 229 229 229 240 249 258 274 286 286 280 278 276 277 279 279 278 274 271 266 262 258 256 251 246 247 249 251 251 250 250 249 253 258 260 260 272 287 294 298 305 315 328 334 338 342 346 347 345 342 340 335 330 326 324 325 327 330
79 96 110 112 108 111 121 138 153 138 132 136 144 157 155 162 189 215 191 190 203 185 193 220 209 213 220 212 222 233 236 245 260 278 287 288 285 281 280 281 281 280 278 276 275 274 269 267 263 255 246 242 240 241 242 240 239 241 246 253 262 272 284 296 305 314 334 351 358 359 358 357 356 354 350 345 339 334 330 327 325 324 326 330 333
80 88 94 98 103 111 119 127 134 128 130 139 153 175 162 165 185 202 164 158 169 181 197 220 206 209 231 230 230 238 250 274 289 290 287 285 283 283 282 282 280 279 280 283 285 289 276 210 182 186 188 186 189 196 200 204 218 227 236 258 284 306 329 356 15 21 23 19 15 12 8 3 357 351 344 339 335 333 331 329 329 329 332 332 332
70 76 82 90 100 111 119 123 126 124 130 141 161 184 168 163 181 115 77 96 146 188 187 192 204 219 246 251 247 268 298 299 293 287 286 284 284 283 281 280 10 77 84 86 89 93 94 97 102 109 116 125 137 153 168 176 181 166 101 64 59 58 58 57 51 45 39 32 23 13 4 358 352 347 342 342 341 340 338 336 335 335 333 329 327
65 68 74 83 92 105 116 116 119 123 132 141 153 175 165 147 150 53 46 31 14 253 185 177 270 296 306 290 284 298 298 290 287 287 288 285 283 205 105 97 93 88 90 93 93 92 91 90 93 99 108 119 125 123 120 112 101 93 88 87 84 79 72 66 60 52 41 26 15 7 3 359 356 354 354 354 352 349 346 343 341 337 332 327 325
63 67 69 74 80 89 98 100 104 113 123 132 138 145 134 95 83 345 269 313 335 269 227 223 251 272 263 258 267 276 278 286 298 323 76 98 106 108 104 97 92 88 91 94 93 91 91 91 94 99 103 103 100 97 96 95 96 96 96 92 85 79 74 69 59 47 34 26 21 18 17 14 12 9 7 5 1 357 352 347 342 336 330 326 328
64 67 69 70 73 76 78 79 78 81 90 107 117 116 103 84 85 90 71 59 58 90 119 144 161 186 189 186 179 162 134 103 95 95 97 98 99 96 96 95 93 92 92 92 91 92 93 95 95 95 93 92 91 92 92 93 94 94 90 86 81 75 66 59 50 43 40 37 35 34 31 26 22 17 15 14 9 4 359 351 341 334 333 333 334
65 67 68 68 68 69 69 68 67 66 69 80 93 98 99 93 87 81 77 80 81 79 80 92 108 121 132 134 129 121 110 105 101 98 96 92 89 89 91 93 94 94 94 94 94 94 94 94 92 90 88 88 88 87 88 87 85 83 83 80 72 62 53 48 45 43 42 41 40 37 32 26 20 17 16 14 11 8 2 353 344 341 342 341 338
65 66 66 65 65 66 66 66 64 63 63 67 79 89 94 94 86 84 86 86 84 82 84 96 106 111 116 116 112 107 105 104 102 98 93 89 86 87 90 93 95 95 95 95 95 95 94 93 91 89 87 84 82 81 80 78 77 77 74 66 58 52 46 42 41 39 35 31 30 29 27 23 18 16 13 10 8 4 360 354 349 348 348 344 340
64 64 64 62 62 63 65 66 67 66 65 67 73 82 87 88 85 85 88 88 86 85 91 99 105 107 107 104 101 98 100 103 100 93 90 87 86 88 92 94 95 95 96 95 96 95 93 92 90 89 86 84 81 77 75 72 70 66 59 53 49 46 41 36 32 30 28 23 22 27 27 20 17 17 14 10 4 360 358 355 351 351 347 345 346
62 63 62 61 60 60 62 65 67 68 68 69 72 76 79 82 84 88 91 91 89 89 94 100 103 103 100 96 92 92 98 101 97 92 90 89 89 91 93 95 96 97 97 96 96 94 92 91 90 89 88 84 79 73 69 64 59 55 52 51 49 44 39 36 32 29 25 20 16 22 27 23 22 22 13 3 357 358 357 354 353 350 348 353 1
61 62 61 60 59 59 60 62 64 67 68 69 71 72 75 79 86 91 94 95 94 93 94 98 100 100 96 90 84 90 99 99 94 92 91 90 91 92 95 98 99 99 98 97 95 93 92 91 89 87 84 79 73 67 62 56 52 49 49 51 49 45 41 41 40 36 30 22 18 21 29 25 17 6 353 348 350 355 355 353 355 355 1 10 13
60 60 61 61 61 60 60 61 62 64 67 68 70 73 75 78 84 89 92 94 93 92 93 96 98 96 90 83 80 91 97 95 92 93 93 93 94 95 99 101 101 100 98 96 93 91 89 87 84 80 77 73 69 65 60 55 50 47 45 46 45 43 41 40 39 36 29 21 19 25 23 1 351 344 339 341 347 354 357 360 5 15 24 27 40
61 60 61 62 62 62 61 61 62 64 66 69 72 74 76 77 80 83 85 86 87 89 91 93 93 92 86 80 81 90 94 94 93 93 94 95 97 99 102 103 101 99 96 91 87 84 82 78 75 71 68 66 64 61 56 51 46 43 42 42 44 44 42 39 34 29 22 12 4 359 345 338 343 345 344 348 354 3 11 17 27 38 43 60 86
62 61 61 62 63 63 62 62 63 65 67 69 73 75 77 77 77 79 81 82 84 87 90 89 89 88 85 81 84 89 91 94 94 94 94 95 96 100 102 102 99 95 90 85 80 77 74 72 69 67 66 64 62 58 52 47 43 41 40 44 48 46 43 40 33 22 13 10 6 352 342 348 360 8 10 12 17 23 32 40 48 58 74 93 102
61 61 61 62 63 62 62 62 64 66 67 68 72 76 78 79 79 79 81 83 86 89 90 89 87 87 84 84 88 90 92 95 96 96 95 95 95 96 97 97 94 90 85 81 77 74 72 72 69 66 64 64 62 59 55 49 43 40 42 51 56 50 45 40 35 23 8 9 19 22 20 26 37 42 42 41 42 46 52 59 67 81 96 104 104
61 61 62 63 64 63 62 63 65 67 67 68 71 75 79 81 81 82 83 85 88 90 92 91 90 87 85 87 91 93 94 96 98 98 97 95 94 93 92 91 89 86 82 78 75 73 72 69 66 62 61 61 61 60 56 49 42 41 47 57 60 52 45 40 36 20 8 16 33 41 44 51 57 60 61 60 60 64 68 74 85 98 105 105 103
63 61 62 64 65 65 64 64 67 68 69 69 70 73 77 81 83 84 85 87 90 93 95 95 93 89 88 88 93 96 97 97 97 97 96 94 93 91 89 87 87 85 80 76 73 71 69 67 64 61 59 58 59 58 55 49 43 43 48 55 53 44 42 42 34 17 18 34 47 53 58 64 68 70 71 71 73 75 80 86 96 103 104 103 102
65 64 63 65 67 67 67 66 68 70 71 71 71 73 75 79 82 84 86 89 93 97 98 97 94 92 92 91 93 96 98 98 97 95 94 92 90 88 86 85 85 83 78 75 72 69 68 66 64 61 58 55 56 58 56 51 45 44 46 49 49 44 40 36 31 30 39 51 59 63 68 72 75 77 78 79 81 83 87 93 99 102 102 101 99
66 66 65 66 67 68 68 67 68 70 72 72 72 74 76 78 81 83 85 88 93 99 101 101 97 94 94 95 95 96 97 98 97 95 93 90 88 86 86 85 83 81 79 76 74 70 66 65 63 60 57 54 55 57 57 54 52 50 49 50 52 52 49 47 48 51 57 63 68 71 75 78 81 82 84 85 86 88 91 94 97 98 98 97 96
67 68 67 67 67 67 68 68 68 70 71 72 72 74 76 79 81 83 85 87 91 97 101 102 101 99 98 98 98 97 97 96 95 94 92 90 89 88 87 85 83 81 78 77 74 70 65 63 62 61 59 57 57 58 59 60 60 59 58 58 59 60 61 62 63 64 67 71 75 78 80 83 85 87 88 89 89 91 92 94 95 96 96 95 93
69 68 68 68 68 66 66 68 69 70 71 71 72 73 76 78 80 82 84 87 90 94 99 101 102 102 102 101 99 98 96 95 93 93 93 92 90 89 87 85 84 82 79 76 74 71 66 63 63 63 63 62 62 63 63 63 63 63 63 63 64 66 68 70 71 72 74 77 81 83 85 87 89 90 91 91 92 92 93 94 94 94 94 93 93
70 70 69 69 69 67 66 66 68 70 71 71 71 72 73 76 78 80 82 86 89 92 95 98 101 102 103 102 99 97 95 93 92 92 92 92 91 89 87 86 85 83 81 77 74 71 68 65 65 66 66 67 66 65 64 64 65 65 65 65 67 70 72 74 76 78 80 82 85 87 88 90 91 92 92 93 93 93 93 93 92 92 92 92 91
71 71 71 71 70 70 68 67 67 69 71 72 72 71 72 73 76 78 81 84 87 90 92 94 98 102 103 101 98 96 94 93 92 92 92 92 92 91 89 88 86 83 81 77 74 72 71 70 69 69 69 68 67 66 65 65 66 67 67 68 70 72 75 77 79 81 83 85 87 88 90 91 91 91 92 92 92 92 91 91 90 90 89 89 88
73 71 72 72 72 72 71 70 69 69 71 72 73 72 71 72 73 76 79 81 84 88 91 93 96 100 101 100 98 95 94 94 95 96 96 95 95 93 91 88 85 82 79 76 75 75 75 74 72 71 69 68 67 67 67 66 67 68 69 70 72 74 77 79 81 83 85 87 88 89 90 90 91 91 91 91 90 90 90 89 89 89 88 88 88
75 73 72 72 73 73 73 73 72 71 70 71 73 73 73 72 72 74 77 79 82 85 89 92 95 97 99 99 97 95 95 96 97 99 99 98 96 94 91 88 85 82 79 78 78 77 77 76 74 73 71 70 68 68 68 68 68 69 70 71 73 76 77 79 82 84 86 87 88 89 90 90 91 91 91 91 91 90 90 90 90 89 89 89 89
78 75 73 72 72 73 73 74 74 73 72 71 72 73 74 74 73 73 75 77 79 82 86 91 93 94 96 96 96 95 96 98 99 100 99 97 95 93 91 88 85 84 83 82 81 79 78 77 76 75 74 72 71 70 70 70 70 71 72 74 75 77 78 80 83 85 86 88 89 90 90 91 91 92 92 92 92 92 92 92 92 91 91 91 91
83 79 77 75 73 72 72 72 73 74 74 73 73 73 74 75 75 74 74 75 77 79 83 88 91 92 93 95 96 97 99 100 100 99 96 95 93 91 90 89 88 87 87 85 84 82 81 80 79 78 77 75 74 74 73 73 74 75 76 77 78 79 81 83 85 87 88 89 90 91 92 92 92 93 93 93 93 93 93 92 92 92 91 91 91
90 83 80 79 77 74 72 71 71 72 74 74 74 73 73 74 75 75 75 75 76 78 80 85 89 92 92 94 96 98 99 99 98 96 94 93 92 91 90 90 91 91 90 89 88 87 86 85 83 82 81 79 79 78 78 78 79 80 81 82 82 83 85 86 88 89 90 91 91 92 92 92 92 92 92 92 92 91 91 91 91 90 90 89 89
96 91 84 83 82 79 75 72 70 70 72 73 74 74 74 74 74 75 75 76 77 78 80 83 87 91 93 95 96 96 96 96 95 94 94 93 93 91 91 92 93 94 93 93 93 92 91 89 88 86 85 84 84 83 83 83 84 85 86 86 87 87 88 89 90 91 91 92 92 92 92 91 91 90 89 89 89 89 88 88 88 87 87 86 86
105 101 94 88 87 84 80 75 72 71 71 72 74 74 74 74 74 75 75 76 77 78 79 82 85 89 93 95 96 94 93 94 94 94 95 95 93 92 92 93 95 96 97 98 98 97 96 94 92 91 89 89 88 88 88 88 88 89 89 90 90 91 91 92 92 92 93 92 92 92 91 90 90 89 88 87 87 86 86 86 85 85 84 84 83
115 111 106 98 93 90 85 80 76 74 73 72 73 74 75 75 76 76 76 77 77 78 79 80 83 87 89 92 94 94 93 93 95 96 95 94 94 93 93 95 97 98 100 102 103 102 101 98 96 95 94 93 93 93 92 93 93 92 92 93 93 93 93 93 93 93 93 93 92 91 91 90 89 89 88 87 86 86 85 84 83 82 82 81 80
124 119 115 109 101 97 91 85 80 77 75 74 74 74 75 76 77 77 77 77 78 78 78 79 81 84 86 87 89 92 94 95 95 95 95 94 93 93 94 97 100 101 103 105 106 105 104 102 100 99 98 97 97 97 96 96 96 96 95 95 95 95 94 94 94 93 93 92 91 90 90 89 88 88 87 86 85 84 83 82 81 80 79 78 77
132 128 125 119 112 106 100 92 85 80 77 75 75 74 74 75 76 78 79 79 79 79 79 79 80 81 83 85 87 89 91 93 93 93 93 93 93 94 96 100 103 104 105 106 107 106 105 104 102 101 101 100 100 100 100 99 99 98 98 97 97 96 96 95 94 93 92 91 90 89 89 88 87 86 86 85 83 82 80 79 78 77 76 75 74
Height
10957 10958 10959 10960 10960 10960 10960 10959 10959 10959 10959 10960 10960 10960 10960 10961 10961 10963 10964 10965 10967 10967 10967 10967 10967 10967 10967 10967 10967 10966 10966 10966 10966 10965 10964 10964 10963 10963 10962 10961 10960 10960 10959 10959 10958 10958 10958 10958 10957 10956 10956 10955 10955 10954 10953 10951 10949 10948 10948 10948 10948 10947 10947 10947 10946 10946 10945 10945 10944 10942 10940 10939 10938 10936 10935 10934 10934 10933 10933 10933 10933 10933 10934 10934 10935
10957 10957 10958 10959 10960 10960 10960 10960 10959 10959 10959 10959 10958 10958 10958 10958 10958 10960 10962 10965 10966 10965 10965 10966 10966 10967 10967 10967 10967 10966 10966 10965 10965 10964 10963 10962 10962 10961 10961 10961 10960 10960 10959 10958 10957 10957 10957 10956 10955 10954 10954 10954 10953 10953 10952 10950 10948 10946 10946 10946 10946 10945 10945 10945 10945 10944 10944 10944 10943 10941 10940 10938 10938 10937 10935 10935 10934 10933 10932 10932 10932 10932 10932 10932 10933
10957 10957 10958 10958 10959 10960 10961 10961 10960 10958 10958 10959 10958 10956 10956 10957 10958 10960 10963 10964 10964 10964 10965 10966 10966 10966 10966 10966 10966 10965 10965 10964 10964 10963 10962 10961 10961 10960 10960 10960 10960 10960 10959 10958 10956 10955 10955 10954 10953 10953 10952 10952 10952 10952 10951 10949 10947 10946 10944 10944 10943 10943 10943 10943 10943 10943 10943 10942 10941 10940 10939 10938 10937 10936 10935 10935 10934 10933 10932 10931 10931 10930 10930 10930 10930
10957 10957 10957 10958 10958 10959 10960 10962 10961 10960 10960 10961 10959 10956 10956 10957 10959 10961 10963 10963 10963 10963 10964 10964 10965 10965 10965 10965 10965 10964 10964 10963 10963 10962 10961 10960 10959 10959 10959 10959 10960 10960 10959 10958 10956 10954 10953 10952 10952 10951 10950 10950 10950 10950 10950 10948 10947 10945 10944 10942 10942 10941 10941 10941 10941 10941 10941 10941 10940 10939 10939 10938 10936 10935 10935 10934 10933 10932 10932 10931 10930 10929 10929 10928 10928
10957 10957 10957 10957 10957 10958 10959 10960 10961 10961 10962 10961 10959 10957 10957 10959 10961 10962 10962 10962 10961 10962 10963 10963 10963 10963 10964 10964 10963 10963 10963 10962 10962 10961 10960 10959 10958 10958 10958 10959 10959 10959 10959 10958 10956 10954 10952 10951 10950 10949 10949 10949 10949 10948 10948 10947 10946 10945 10943 10942 10941 10940 10939 10939 10940 10940 10940 10939 10939 10938 10937 10937 10935 10934 10934 10933 10933 10932 10931 10930 10929 10928 10927 10926 10926
10957 10957 10956 10956 10956 10957 10957 10959 10960 10961 10961 10959 10957 10957 10958 10960 10961 10961 10960 10960 10960 10961 10962 10962 10962 10963 10963 10963 10962 10962 10962 10961 10960 10960 10958 10958 10958 10958 10957 10957 10958 10958 10958 10957 10956 10954 10952 10950 10948 10947 10947 10948 10948 10947 10946 10946 10945 10944 10943 10942 10940 10939 10938 10938 10938 10938 10937 10937 10936 10936 10935 10935 10934 10933 10933 10932 10932 10931 10931 10929 10928 10927 10926 10925 10924
10958 10957 10957 10956 10955 10955 10956 10956 10957 10958 10958 10958 10956 10956 10958 10960 10960 10959 10959 10959 10959 10960 10961 10961 10961 10962 10961 10961 10961 10961 10960 10960 10959 10959 10958 10957 10957 10957 10957 10956 10956 10957 10957 10956 10956 10954 10952 10950 10947 10946 10945 10945 10945 10946 10945 10944 10943 10943 10942 10941 10940 10938 10937 10936 10936 10936 10935 10934 10934 10934 10933 10933 10933 10932 10932 10931 10931 10930 10929 10928 10927 10926 10924 10923 10922
10958 10958 10957 10956 10956 10955 10955 10955 10955 10955 10955 10956 10956 10956 10957 10959 10959 10958 10958 10958 10959 10959 10959 10960 10960 10960 10959 10959 10959 10960 10960 10959 10958 10958 10957 10957 10956 10956 10956 10956 10956 10956 10956 10956 10955 10954 10952 10950 10948 10946 10944 10942 10942 10942 10943 10943 10943 10942 10940 10940 10938 10937 10936 10936 10935 10934 10933 10932 10932 10932 10932 10932 10931 10931 10931 10930 10929 10929 10928 10926 10925 10924 10923 10922 10921
10958 10958 10957 10957 10956 10956 10955 10955 10954 10954 10954 10954 10954 10955 10956 10958 10958 10957 10956 10957 10958 10958 10958 10959 10959 10959 10958 10959 10959 10959 10959 10958 10957 10957 10957 10957 10956 10954 10956 10956 10956 10955 10955 10954 10954 10953 10951 10950 10949 10947 10945 10942 10940 10939 10940 10941 10941 10940 10939 10938 10937 10937 10936 10935 10935 10933 10932 10931 10931 10930 10930 10930 10930 10930 10929 10928 10928 10927 10926 10924 10923 10922 10922 10921 10920
10959 10958 10958 10957 10957 10957 10956 10955 10955 10954 10954 10953 10953 10954 10956 10957 10957 10956 10956 10956 10956 10957 10957 10958 10958 10958 10958 10958 10958 10958 10957 10957 10956 10956 10956 10956 10955 10953 10954 10957 10956 10954 10953 10953 10952 10951 10950 10949 10948 10947 10945 10943 10940 10938 10937 10938 10938 10938 10938 10937 10936 10936 10935 10935 10934 10932 10931 10930 10930 10929 10929 10929 10929 10928 10928 10927 10926 10925 10924 10923 10922 10921 10920 10919 10918
10959 10958 10958 10957 10957 10957 10956 10955 10955 10954 10954 10953 10953 10953 10955 10956 10956 10956 10956 10956 10956 10956 10957 10958 10958 10958 10957 10957 10956 10956 10956 10956 10956 10956 10956 10956 10955 10952 10953 10956 10956 10953 10952 10951 10951 10950 10948 10947 10946 10945 10945 10943 10940 10937 10936 10935 10935 10935 10936 10936 10935 10934 10934 10933 10932 10931 10930 10930 10929 10929 10929 10928 10928 10927 10926 10925 10924 10923 10922 10921 10920 10920 10919 10918 10917
10959 10958 10957 10957 10957 10956 10955 10954 10953 10953 10953 10953 10952 10952 10954 10954 10955 10956 10956 10956 10956 10957 10957 10957 10957 10957 10956 10955 10955 10956 10956 10955 10955 10956 10956 10956 10955 10951 10952 10956 10955 10952 10950 10950 10950 10948 10947 10945 10944 10944 10944 10942 10940 10937 10935 10933 10933 10934 10934 10934 10934 10933 10933 10932 10931 10930 10930 10929 10928 10928 10927 10927 10926 10926 10925 10924 10923 10922 10921 10920 10919 10919 10918 10917 10917
10958 10957 10957 10956 10956 10955 10954 10952 10951 10952 10953 10952 10951 10951 10952 10953 10954 10955 10955 10955 10956 10956 10956 10956 10956 10956 10955 10955 10954 10954 10955 10955 10954 10955 10955 10955 10954 10951 10952 10955 10953 10950 10949 10949 10948 10947 10946 10945 10943 10943 10943 10942 10939 10936 10934 10933 10933 10933 10933 10933 10933 10932 10932 10931 10930 10929 10929 10928 10927 10927 10926 10925 10925 10924 10924 10923 10922 10921 10920 10920 10919 10918 10917 10916 10916
10958 10957 10955 10955 10954 10953 10953 10951 10949 10950 10952 10952 10950 10951 10951 10951 10952 10954 10955 10955 10956 10956 10955 10955 10955 10955 10955 10955 10954 10953 10953 10953 10953 10953 10954 10954 10953 10953 10953 10952 10950 10948 10947 10946 10946 10945 10944 10944 10943 10941 10941 10940 10938 10935 10933 10933 10933 10933 10933 10933 10932 10932 10931 10930 10929 10929 10928 10927 10926 10926 10925 10924 10924 10923 10923 10922 10921 10921 10920 10919 10919 10918 10917 10915 10915
10957 10955 10954 10953 10952 10952 10951 10949 10948 10949 10952 10952 10950 10951 10951 10950 10950 10953 10955 10955 10955 10955 10955 10954 10955 10954 10954 10954 10954 10953 10952 10951 10951 10951 10952 10952 10952 10953 10953 10950 10947 10946 10945 10944 10943 10943 10942 10941 10941 10940 10939 10939 10936 10934 10933 10934 10934 10934 10933 10932 10932 10931 10930 10929 10928 10928 10927 10926 10926 10925 10924 10923 10923 10923 10922 10921 10921 10920 10920 10919 10918 10917 10916 10914 10914
10956 10955 10953 10952 10952 10951 10950 10948 10947 10949 10952 10952 10951 10951 10952 10950 10950 10951 10953 10954 10954 10954 10954 10954 10954 10954 10953 10953 10952 10952 10951 10950 10950 10950 10950 10950 10949 10949 10949 10947 10945 10944 10942 10941 10940 10940 10939 10938 10938 10937 10937 10937 10935 10934 10934 10934 10934 10934 10933 10932 10932 10931 10930 10929 10928 10927 10926 10926 10925 10924 10924 10923 10923 10922 10922 10921 10920 10920 10919 10918 10917 10916 10915 10914 10913
10956 10955 10954 10953 10952 10951 10950 10947 10947 10950 10953 10953 10951 10951 10952 10951 10950 10951 10952 10952 10952 10952 10952 10953 10953 10953 10952 10952 10951 10950 10949 10948 10948 10948 10947 10947 10946 10945 10945 10944 10943 10941 10940 10938 10937 10937 10937 10936 10936 10935 10935 10935 10934 10934 10934 10934 10934 10933 10933 10932 10931 10931 10930 10928 10927 10927 10926 10925 10924 10924 10923 10923 10922 10922 10921 10921 10920 10919 10918 10917 10916 10915 10914 10913 10912
10957 10956 10955 10954 10953 10952 10950 10948 10947 10951 10953 10953 10951 10951 10952 10951 10950 10951 10951 10951 10951 10951 10951 10951 10951 10951 10950 10950 10950 10949 10948 10948 10947 10945 10943 10943 10942 10942 10942 10941 10940 10938 10937 10936 10935 10934 10934 10934 10933 10933 10933 10933 10934 10934 10934 10934 10933 10933 10932 10932 10931 10930 10929 10928 10927 10926 10925 10925 10924 10923 10923 10923 10922 10921 10921 10920 10919 10918 10917 10916 10915 10914 10913 10912 10911
10958 10957 10956 10954 10953 10952 10951 10949 10948 10951 10953 10953 10952 10952 10952 10952 10951 10950 10950 10950 10950 10950 10949 10949 10949 10949 10949 10949 10949 10948 10947 10946 10945 10942 10940 10940 10940 10940 10939 10938 10937 10936 10934 10933 10932 10932 10932 10931 10931 10932 10932 10933 10933 10933 10933 10933 10933 10933 10932 10931 10931 10930 10929 10928 10927 10926 10925 10925 10924 10923 10923 10922 10921 10921 10920 10919 10918 10918 10917 10916 10915 10914 10912 10911 10910
10959 10957 10956 10954 10954 10953 10952 10950 10949 10951 10953 10953 10952 10951 10951 10951 10950 10949 10948 10948 10949 10948 10948 10947 10947 10947 10947 10948 10948 10946 10943 10943 10942 10940 10939 10939 10938 10938 10937 10936 10935 10933 10932 10931 10931 10931 10931 10931 10931 10932 10932 10933 10933 10933 10933 10933 10933 10932 10932 10931 10930 10929 10929 10928 10927 10926 10925 10924 10924 10923 10922 10922 10921 10920 10919 10919 10918 10917 10916 10915 10914 10913 10911 10910 10909
10959 10957 10956 10955 10954 10953 10952 10951 10950 10951 10953 10953 10951 10950 10950 10950 10950 10948 10948 10947 10947 10947 10946 10945 10945 10944 10944 10945 10944 10941 10940 10941 10941 10940 10939 10938 10937 10937 10936 10935 10933 10932 10932 10931 10931 10931 10931 10932 10932 10932 10933 10933 10933 10933 10933 10933 10933 10932 10932 10931 10930 10929 10928 10927 10927 10926 10925 10924 10923 10922 10922 10921 10920 10920 10919 10918 10917 10916 10915 10914 10913 10912 10911 10909 10908
10959 10957 10956 10955 10955 10954 10953 10952 10950 10951 10953 10953 10951 10950 10949 10949 10949 10949 10948 10948 10947 10946 10945 10944 10943 10942 10942 10942 10941 10940 10941 10941 10941 10940 10939 10938 10937 10936 10935 10934 10933 10933 10932 10932 10932 10932 10932 10933 10933 10933 10933 10933 10933 10933 10933 10933 10933 10932 10932 10931 10930 10929 10928 10927 10926 10925 10924 10924 10923 10922 10921 10921 10920 10920 10919 10918 10917 10916 10915 10914 10912 10911 10910 10909 10908
10960 10958 10957 10956 10955 10954 10954 10952 10951 10951 10952 10953 10952 10950 10949 10949 10949 10949 10949 10948 10948 10947 10947 10946 10945 10945 10945 10944 10943 10943 10943 10942 10941 10940 10939 10938 10937 10936 10935 10934 10934 10933 10933 10933 10933 10933 10933 10934 10934 10934 10934 10934 10934 10934 10933 10933 10933 10932 10931 10931 10930 10928 10928 10927 10926 10925 10924 10923 10923 10922 10921 10921 10920 10919 10918 10917 10916 10915 10914 10913 10912 10911 10910 10909 10908
10961 10959 10958 10956 10956 10955 10954 10953 10951 10951 10951 10952 10952 10951 10949 10948 10948 10948 10948 10948 10948 10948 10948 10947 10947 10947 10947 10946 10945 10945 10944 10943 10942 10941 10940 10938 10937 10936 10935 10935 10935 10935 10935 10935 10935 10935 10935 10935 10935 10935 10935 10934 10934 10934 10934 10933 10933 10932 10931 10930 10929 10928 10927 10926 10926 10925 10924 10924 10923 10922 10921 10921 10920 10919 10918 10917 10916 10915 10914 10913 10912 10910 10909 10908 10907
10962 10960 10959 10957 10956 10955 10955 10954 10952 10951 10951 10951 10952 10951 10950 10949 10948 10948 10948 10948 10948 10948 10947 10947 10947 10947 10947 10947 10946 10945 10945 10943 10942 10941 10940 10939 10938 10937 10937 10936 10936 10936 10936 10936 10936 10936 10936 10936 10936 10936 10935 10935 10935 10935 10934 10934 10933 10932 10932 10931 10930 10928 10927 10927 10926 10925 10925 10924 10923 10922 10921 10921 10920 10919 10918 10917 10916 10915 10914 10913 10912 10910 10909 10908 10907
10963 10961 10960 10958 10957 10956 10955 10955 10953 10952 10950 10950 10951 10951 10951 10950 10949 10948 10948 10948 10948 10948 10947 10948 10948 10948 10947 10947 10946 10945 10944 10943 10943 10941 10941 10940 10939 10939 10938 10938 10938 10938 10938 10938 10938 10938 10938 10937 10937 10937 10936 10936 10936 10935 10935 10934 10934 10933 10932 10931 10929 10928 10928 10927 10927 10926 10925 10925 10924 10923 10921 10921 10920 10919 10918 10917 10916 10915 10914 10913 10912 10910 10909 10908 10907
10965 10963 10961 10960 10958 10957 10956 10956 10954 10953 10951 10950 10950 10950 10950 10950 10949 10949 10948 10948 10948 10948 10948 10949 10948 10948 10948 10947 10946 10946 10945 10944 10943 10942 10941 10941 10941 10940 10940 10940 10940 10940 10940 10940 10940 10939 10939 10939 10938 10938 10937 10937 10936 10936 10936 10935 10934 10934 10932 10931 10930 10929 10929 10928 10927 10927 10926 10925 10924 10923 10921 10921 10920 10919 10918 10918 10917 10916 10914 10913 10912 10910 10909 10908 10907
10966 10964 10962 10961 10960 10959 10957 10957 10955 10954 10952 10951 10950 10950 10950 10950 10950 10950 10949 10949 10949 10949 10950 10949 10949 10949 10948 10948 10947 10946 10945 10944 10943 10943 10942 10942 10942 10942 10942 10942 10942 10942 10942 10942 10941 10941 10940 10940 10940 10939 10939 10938 10937 10937 10936 10936 10935 10934 10932 10931 10931 10930 10929 10928 10928 10927 10926 10925 10924 10923 10922 10921 10920 10919 10918 10918 10917 10916 10914 10913 10912 10911 10910 10908 10907
10968 10966 10964 10963 10962 10960 10959 10958 10957 10955 10953 10952 10951 10950 10950 10950 10951 10951 10951 10951 10951 10951 10951 10950 10950 10949 10949 10949 10948 10947 10946 10945 10944 10944 10944 10944 10944 10944 10944 10944 10945 10944 10944 10944 10943 10943 10942 10942 10941 10940 10939 10938 10938 10937 10937 10936 10935 10934 10933 10932 10931 10930 10929 10929 10928 10927 10926 10925 10924 10923 10922 10921 10920 10919 10918 10917 10916 10916 10914 10913 10912 10911 10910 10908 10907
10969 10968 10967 10965 10964 10962 10961 10960 10958 10956 10955 10953 10952 10951 10951 10951 10951 10952 10952 10952 10952 10952 10952 10951 10951 10950 10950 10949 10948 10947 10946 10946 10945 10945 10945 10945 10945 10946 10946 10946 10947 10946 10946 10946 10945 10944 10944 10943 10942 10941 10940 10939 10939 10938 10938 10937 10936 10935 10933 10932 10931 10931 10930 10928 10927 10926 10926 10925 10923 10922 10922 10921 10920 10919 10918 10917 10916 10915 10914 10913 10912 10911 10910 10909 10907
10972 10970 10969 10968 10966 10965 10963 10962 10960 10958 10957 10955 10954 10953 10952 10952 10952 10951 10951 10952 10952 10952 10952 10952 10952 10951 10951 10950 10949 10948 10947 10947 10947 10947 10947 10947 10947 10947 10948 10948 10948 10948 10948 10947 10947 10946 10946 10945 10944 10943 10942 10941 10940 10939 10938 10937 10936 10935 10934 10933 10932 10931 10929 10928 10927 10926 10925 10924 10923 10922 10921 10920 10919 10918 10917 10917 10916 10915 10914 10913 10912 10911 10910 10909 10909
10974 10973 10971 10970 10969 10967 10966 10964 10962 10960 10959 10957 10956 10954 10953 10953 10952 10952 10952 10952 10952 10952 10953 10953 10952 10952 10951 10950 10949 10949 10949 10949 10949 10949 10949 10949 10949 10949 10950 10950 10950 10950 10950 10949 10948 10948 10947 10946 10945 10944 10943 10942 10941 10940 10939 10938 10937 10935 10934 10933 10932 10931 10929 10928 10927 10926 10925 10924 10922 10921 10920 10919 10918 10918 10917 10916 10915 10915 10914 10913 10913 10912 10911 10911 10911
10977 10975 10974 10972 10971 10969 10968 10966 10964 10962 10961 10959 10957 10956 10955 10954 10954 10953 10953 10953 10953 10954 10954 10953 10953 10953 10952 10951 10951 10951 10951 10951 10951 10951 10951 10951 10951 10952 10952 10952 10952 10952 10951 10951 10950 10949 10948 10947 10946 10945 10944 10943 10942 10941 10939 10938 10937 10936 10934 10933 10932 10931 10930 10928 10927 10926 10924 10923 10921 10920 10919 10918 10918 10917 10917 10916 10915 10915 10914 10914 10914 10913 10913 10913 10913
10980 10978 10977 10975 10973 10972 10970 10969 10967 10964 10963 10961 10960 10958 10957 10956 10956 10956 10955 10955 10955 10955 10955 10955 10955 10955 10954 10954 10953 10953 10953 10953 10953 10953 10953 10953 10953 10954 10953 10953 10953 10953 10953 10952 10951 10951 10950 10948 10947 10946 10945 10944 10943 10941 10940 10939 10937 10936 10934 10933 10932 10931 10930 10928 10927 10926 10924 10922 10921 10920 10919 10918 10917 10917 10917 10916 10916 10916 10915 10915 10915 10915 10915 10916 10916
10982 10981 10980 10978 10976 10974 10973 10971 10969 10967 10965 10964 10962 10961 10960 10959 10958 10958 10957 10957 10957 10957 10957 10957 10957 10957 10957 10957 10956 10956 10956 10956 10956 10956 10955 10955 10955 10955 10955 10955 10955 10955 10954 10953 10953 10952 10951 10949 10948 10947 10946 10945 10943 10942 10940 10939 10938 10936 10935 10934 10932 10931 10930 10929 10927 10926 10924 10922 10921 10920 10919 10918 10918 10918 10917 10917 10917 10917 10917 10917 10917 10917 10918 10918 10918
10984 10983 10983 10981 10979 10977 10976 10974 10972 10970 10968 10966 10965 10963 10962 10961 10960 10960 10960 10959 10959 10959 10959 10959 10959 10959 10959 10959 10958 10958 10958 10958 10958 10958 10957 10957 10957 10957 10956 10956 10956 10956 10955 10955 10954 10953 10952 10950 10949 10948 10947 10945 10944 10942 10941 10940 10938 10936 10935 10934 10933 10932 10930 10929 10928 10926 10924 10923 10921 10921 10920 10919 10919 10919 10919 10919 10919 10920 10920 10920 10920 10920 10921 10921 10921
10987 10986 10985 10984 10982 10980 10978 10976 10974 10972 10971 10969 10967 10966 10965 10964 10963 10962 10961 10961 10961 10961 10961 10962 10962 10961 10961 10961 10961 10960 10960 10960 10960 10959 10959 10959 10959 10958 10958 10958 10958 10958 10957 10956 10955 10954 10953 10951 10950 10949 10947 10946 10944 10943 10941 10940 10938 10937 10936 10934 10933 10932 10931 10930 10928 10926 10925 10924 10923 10922 10922 10921 10921 10921 10921 10921 10922 10922 10922 10923 10923 10923 10923 10923 10923
10990 10989 10988 10987 10985 10983 10981 10979 10977 10975 10973 10972 10970 10968 10967 10966 10965 10964 10963 10963 10963 10963 10963 10963 10963 10963 10963 10963 10962 10962 10961 10961 10961 10961 10961 10961 10960 10960 10960 10960 10960 10959 10958 10957 10956 10955 10954 10952 10951 10950 10948 10947 10945 10944 10942 10941 10939 10937 10936 10935 10934 10933 10932 10931 10929 10927 10926 10926 10925 10924 10924 10924 10924 10924 10924 10924 10924 10925 10925 10925 10926 10926 10926 10926 10925
10993 10992 10990 10989 10988 10986 10984 10982 10980 10978 10976 10975 10973 10971 10970 10969 10967 10966 10965 10965 10964 10964 10964 10964 10964 10964 10964 10964 10964 10964 10963 10963 10963 10963 10962 10962 10962 10962 10961 10961 10961 10960 10960 10959 10958 10956 10955 10953 10952 10951 10950 10948 10947 10945 10944 10942 10940 10939 10938 10937 10936 10934 10933 10932 10931 10929 10929 10928 10927 10927 10927 10927 10927 10927 10926 10927 10927 10927 10928 10928 10928 10928 10928 10928 10928
10995 10994 10993 10992 10990 10989 10987 10985 10983 10981 10979 10978 10976 10974 10973 10971 10970 10968 10967 10967 10966 10966 10965 10965 10965 10966 10966 10966 10965 10965 10965 10964 10964 10964 10964 10964 10964 10963 10963 10963 10963 10962 10961 10960 10959 10957 10956 10955 10954 10953 10951 10950 10949 10947 10946 10944 10942 10941 10940 10939 10938 10937 10935 10934 10933 10932 10931 10931 10931 10930 10930 10930 10930 10930 10930 10930 10930 10930 10931 10931 10931 10931 10931 10931 10931
10998 10997 10996 10994 10993 10991 10990 10988 10986 10984 10982 10981 10979 10977 10976 10974 10972 10971 10970 10969 10968 10967 10967 10967 10967 10967 10967 10967 10967 10967 10966 10966 10966 10966 10966 10966 10965 10965 10965 10965 10964 10964 10963 10962 10961 10959 10958 10957 10956 10955 10954 10953 10951 10950 10948 10947 10945 10944 10943 10942 10941 10939 10938 10937 10936 10935 10934 10934 10934 10934 10934 10934 10934 10934 10934 10934 10934 10934 10934 10935 10935 10935 10935 10935 10935
10999 10999 10998 10997 10996 10994 10993 10991 10989 10987 10985 10984 10982 10980 10978 10977 10975 10974 10973 10971 10970 10969 10968 10968 10969 10969 10969 10969 10968 10968 10968 10968 10968 10968 10968 10968 10967 10967 10967 10967 10966 10965 10965 10964 10963 10962 10960 10960 10959 10958 10957 10956 10954 10952 10951 10950 10949 10947 10946 10945 10944 10943 10941 10940 10939 10938 10938 10938 10938 10938 10938 10938 10938 10938 10938 10938 10938 10938 10939 10939 10939 10939 10939 10939 10939
11001 11001 11001 11000 10998 10997 10996 10994 10992 10991 10989 10987 10985 10983 10981 10980 10978 10977 10975 10974 10973 10972 10971 10971 10971 10971 10971 10970 10970 10970 10970 10970 10970 10970 10970 10970 10969 10969 10969 10968 10968 10967 10967 10966 10965 10964 10963 10962 10962 10961 10960 10959 10957 10956 10954 10953 10953 10952 10950 10949 10948 10947 10945 10944 10943 10943 10943 10943 10942 10942 10942 10942 10942 10942 10942 10943 10943 10943 10943 10943 10943 10943 10943 10943 10943
11002 11002 11002 11002 11001 11000 10998 10997 10995 10994 10992 10991 10989 10986 10984 10983 10982 10980 10978 10976 10975 10974 10974 10973 10973 10973 10973 10972 10972 10972 10972 10972 10973 10973 10972 10972 10972 10971 10971 10970 10970 10970 10969 10969 10968 10967 10967 10966 10965 10965 10964 10962 10961 10960 10958 10957 10957 10956 10955 10954 10952 10951 10950 10949 10949 10948 10948 10948 10947 10947 10947 10947 10948 10947 10947 10947 10947 10947 10947 10948 10948 10948 10948 10948 10947
11004 11004 11004 11003 11003 11002 11001 10999 10998 10996 10995 10994 10992 10990 10988 10986 10985 10983 10981 10980 10978 10977 10976 10976 10976 10976 10975 10975 10975 10975 10975 10975 10975 10975 10975 10975 10974 10974 10973 10973 10973 10972 10972 10972 10971 10971 10970 10969 10969 10968 10967 10966 10965 10964 10963 10962 10961 10961 10960 10959 10957 10956 10955 10955 10955 10954 10954 10953 10953 10953 10953 10953 10953 10953 10953 10953 10953 10953 10953 10953 10953 10953 10953 10953 10953
11005 11005 11005 11005 11004 11004 11003 11002 11000 10999 10997 10996 10994 10993 10991 10989 10988 10986 10985 10983 10982 10980 10979 10979 10979 10978 10978 10978 10978 10978 10978 10977 10978 10978 10978 10977 10977 10976 10976 10976 10976 10975 10975 10975 10975 10974 10974 10973 10973 10972 10971 10970 10969 10968 10968 10967 10967 10966 10965 10964 10963 10962 10962 10962 10961 10961 10960 10960 10960 10960 10960 10960 10960 10960 10959 10959 10959 10959 10959 10959 10959 10959 10959 10959 10958
11006 11007 11007 11006 11005 11005 11004 11004 11002 11001 11000 10998 10996 10995 10994 10992 10991 10989 10988 10986 10985 10984 10983 10982 10982 10981 10981 10980 10980 10980 10980 10980 10980 10980 10980 10980 10980 10980 10980 10979 10979 10978 10978 10979 10979 10978 10978 10978 10977 10977 10976 10975 10974 10973 10973 10972 10972 10972 10971 10970 10969 10968 10968 10968 10967 10967 10966 10966 10966 10966 10966 10966 10966 10966 10966 10966 10966 10965 10965 10965 10965 10965 10964 10964 10963
11007 11008 11008 11008 11007 11007 11006 11005 11004 11003 11002 11000 10999 10998 10996 10995 10994 10993 10991 10990 10989 10988 10987 10986 10985 10985 10984 10983 10983 10983 10983 10983 10983 10983 10983 10983 10983 10983 10983 10983 10982 10982 10982 10982 10982 10982 10982 10982 10982 10981 10981 10980 10979 10978 10978 10977 10977 10977 10976 10975 10974 10974 10974 10974 10973 10973 10972 10972 10972 10971 10971 10971 10971 10971 10971 10971 10971 10971 10971 10970 10970 10970 10970 10969 10968
11008 11009 11009 11010 11009 11008 11008 11007 11006 11005 11004 11003 11002 11000 10999 10998 10997 10996 10994 10993 10992 10991 10990 10989 10988 10988 10987 10987 10986 10985 10986 10986 10986 10986 10986 10986 10986 10986 10986 10986 10986 10986 10986 10986 10986 10986 10986 10986 10986 10985 10985 10984 10984 10983 10983 10982 10982 10982 10981 10980 10980 10979 10979 10979 10979 10978 10978 10977 10977 10976 10976 10976 10976 10976 10976 10976 10976 10976 10976 10975 10975 10975 10975 10974 10973
11009 11009 11010 11011 11011 11010 11010 11009 11008 11007 11006 11005 11004 11003 11002 11001 11000 10999 10997 10996 10995 10995 10994 10993 10991 10990 10990 10990 10989 10989 10988 10989 10989 10989 10989 10989 10989 10989 10989 10989 10989 10989 10990 10990 10990 10990 10990 10990 10989 10989 10989 10988 10988 10988 10987 10987 10986 10986 10986 10985 10985 10984 10984 10984 10984 10983 10983 10982 10981 10981 10981 10980 10980 10980 10980 10980 10980 10980 10980 10980 10979 10979 10979 10978 10977
11010 11010 11011 11012 11012 11012 11012 11011 11010 11009 11008 11007 11007 11006 11005 11004 11003 11002 11000 10999 10999 10998 10997 10996 10994 10993 10993 10993 10993 10992 10992 10992 10992 10991 10991 10991 10991 10991 10991 10992 10992 10993 10993 10994 10994 10994 10994 10994 10993 10993 10993 10992 10992 10991 10991 10991 10990 10990 10990 10989 10989 10989 10989 10988 10988 10988 10987 10987 10986 10986 10985 10985 10985 10985 10985 10985 10984 10984 10984 10983 10983 10983 10982 10982 10980